Lapse_Rate
7.2 7.0 6.7 6.3 5.9 5.6 5.6 5.7 5.3 4.7 4.6 4.7 5.0 4.9 4.7 4.8 5.2 5.5 5.3 5.4 5.4 5.6
6.8 6.7 6.4 5.5 5.3 5.2 5.1 5.2 4.9 5.1 5.0 4.5 4.2 4.3 4.7 5.0 5.5 5.4 5.4 5.2 5.7 5.8
6.6 6.5 5.4 5.4 5.2 4.9 5.0 4.7 4.7 5.4 5.5 5.0 4.6 4.6 4.5 4.9 5.1 5.3 5.6 5.6 5.7 6.1
6.5 5.8 5.4 5.1 5.1 4.8 5.0 4.9 5.4 5.7 5.6 5.2 4.9 4.8 5.1 5.0 5.3 5.4 5.8 5.8 5.8 6.0
6.4 6.1 6.0 5.5 5.2 4.9 4.8 4.9 4.9 5.3 5.4 5.2 4.7 4.9 5.1 5.3 5.3 5.6 5.9 6.2 6.7 6.3
6.5 6.1 6.0 5.3 5.4 5.2 5.0 5.2 4.9 4.7 4.5 4.7 4.6 5.0 5.4 5.7 6.0 6.2 6.4 6.8 6.9 6.8
6.5 6.1 5.9 5.6 5.5 5.4 5.3 5.0 4.4 4.1 4.4 4.0 4.3 5.1 5.9 5.8 6.2 6.6 6.6 6.9 6.8 6.6
6.5 5.8 5.9 5.9 5.9 5.8 5.5 4.8 4.5 4.4 4.2 4.1 4.6 5.3 6.0 6.3 6.5 6.7 6.5 6.7 6.6 6.1
6.1 6.1 6.0 6.2 5.9 5.6 5.3 5.1 4.7 4.3 3.8 3.9 4.9 6.0 6.1 6.3 6.2 6.6 6.5 6.3 6.2 6.2
6.2 6.2 6.2 6.3 6.0 5.3 5.1 4.8 4.2 3.9 3.9 4.0 4.6 6.1 5.8 6.0 6.1 6.2 6.0 5.9 5.8 6.2
6.5 6.3 6.2 6.3 5.9 5.4 4.9 4.8 4.4 4.3 3.7 4.2 4.6 5.2 5.7 6.1 5.7 5.9 6.1 6.1 5.9 5.9
6.4 6.3 6.1 6.1 6.0 5.6 5.4 5.0 4.5 4.4 3.9 4.0 5.2 5.4 5.7 5.7 5.6 5.5 5.4 5.3 5.5 5.6
6.5 6.3 6.3 6.1 6.1 5.9 5.7 5.6 5.2 4.7 4.3 4.1 5.5 5.6 5.6 5.5 5.6 5.7 5.8 5.8 5.8 5.8
6.9 6.7 6.5 6.3 6.0 5.9 5.6 5.5 5.6 5.6 5.0 4.9 5.5 5.5 5.5 5.4 5.3 5.4 5.4 5.4 5.3 5.4
Wind_Speed
12 8 8 11 9 8 7 8 11 11 14 14 16 15 15 13 13 16 13 17 15 11
11 11 9 11 11 7 8 7 11 12 14 15 15 16 17 12 15 14 15 16 15 14
11 10 10 10 10 10 8 8 13 12 12 14 14 15 16 14 15 14 13 13 16 15
11 11 10 9 9 11 7 9 12 11 11 12 14 15 14 14 12 16 14 16 15 19
12 8 9 8 10 8 7 7 8 8 11 13 13 14 14 15 14 14 18 15 17 18
8 7 8 9 9 8 8 6 4 2 6 3 7 14 15 15 16 14 18 17 17 17
7 6 6 7 8 8 7 6 5 2 5 3 4 6 14 14 12 13 14 14 15 16
7 6 4 5 6 6 6 4 4 1 3 4 6 5 8 12 12 10 7 11 10 11
6 6 5 3 4 6 5 5 4 0 3 4 4 4 9 10 9 11 11 10 11 8
7 5 5 3 4 6 5 6 4 2 2 3 7 11 13 13 8 8 10 11 10 10
7 6 5 5 3 5 2 3 4 3 2 3 3 11 15 17 11 10 9 10 9 14
7 6 6 6 6 5 5 5 4 4 3 3 3 9 12 13 10 11 11 10 11 12
7 6 6 7 7 7 6 6 6 9 6 3 4 7 11 9 6 8 7 7 8 12
6 6 7 7 7 8 8 9 9 10 9 11 9 7 11 10 6 6 6 6 5 5
Wind_Direction
245 239 239 247 253 257 243 239 240 244 243 233 227 234 238 236 227 216 210 216 203 198
250 241 234 237 249 245 237 238 244 242 243 235 235 233 235 232 233 223 209 211 198 200
254 240 237 236 241 235 240 245 255 250 243 238 237 234 238 235 230 224 214 208 201 192
270 255 242 237 240 234 232 244 256 254 251 249 243 232 226 226 217 214 217 204 199 197
269 252 237 234 235 225 215 231 251 265 259 246 240 238 231 228 219 210 211 198 195 198
268 246 235 235 233 215 207 215 245 300 277 251 259 238 230 221 217 215 204 198 195 189
310 288 257 238 226 207 186 208 209 213 273 320 292 265 222 205 207 203 209 200 188 187
325 315 303 273 223 173 162 168 175 164 320 276 347 277 191 190 182 175 167 171 173 186
343 343 330 330 158 146 142 165 197 341 344 10 350 343 172 149 161 155 144 159 159 146
347 346 351 9 145 151 167 177 157 162 43 17 32 36 93 113 123 123 136 136 138 121
347 353 19 31 64 137 164 189 182 162 46 66 65 49 65 86 91 95 98 108 130 116
357 14 24 49 45 66 64 54 52 142 122 88 73 80 61 73 78 86 79 84 92 100
13 26 41 59 58 69 69 60 59 59 30 73 105 109 94 86 90 86 86 77 88 113
26 40 59 64 62 72 69 71 65 68 51 54 54 72 94 102 102 108 95 92 90 110